EW9978 Weather Reports


Display with metric or nautical units.
time (UTC)temp
F
wind
direction
speed
MPH
gust
MPH
rain 1hr
in
rain 24hr
in
rain mn
in
humidity
%
barometer
mb
20260505191323 65 290 7.0 15.0 0.00 0.40 0.40 71 -0.1
20260505190829 65 174 11.0 15.0 0.00 0.40 0.40 72 -0.1
20260505190335 65 255 6.0 13.0 0.00 0.40 0.40 73 -0.1
20260505183323 64 246 6.0 15.0 0.00 0.40 0.40 75 -0.1
20260505182829 63 246 8.0 15.0 0.00 0.40 0.40 75 -0.1
20260505181327 63 257 6.0 11.0 0.00 0.40 0.40 74 -0.1
20260505174833 61 272 2.0 14.0 0.00 0.40 0.40 78 -0.1
20260505174322 61 279 8.0 14.0 0.00 0.40 0.40 77 -0.1
20260505173829 61 280 6.0 13.0 0.00 0.40 0.40 78 -0.1
20260505173335 62 264 5.0 12.0 0.00 0.40 0.40 80 -0.1
20260505172820 62 250 5.0 10.0 0.00 0.40 0.40 79 -0.1
20260505172325 62 329 4.0 10.0 0.00 0.40 0.40 82 -0.1
20260505171828 61 230 6.0 14.0 0.00 0.40 0.40 82 -0.1
20260505170822 60 290 7.0 14.0 0.00 0.40 0.40 84 -0.1
20260505165324 60 271 4.0 11.0 0.00 0.40 0.40 86 -0.1
20260505164327 59 228 5.0 11.0 0.00 0.40 0.40 87 -0.1
20260505163836 59 278 6.0 11.0 0.00 0.40 0.40 87 -0.1
20260505163324 59 275 4.0 9.0 0.00 0.40 0.40 89 -0.1
20260505162319 59 304 4.0 12.0 0.00 0.40 0.40 89 -0.1
20260505161839 58 292 5.0 12.0 0.00 0.40 0.40 90 -0.1
20260505161324 58 290 6.0 11.0 0.00 0.40 0.40 92 -0.1
20260505160833 58 302 7.0 10.0 0.00 0.40 0.40 93 -0.1
20260505160339 58 274 4.0 12.0 0.00 0.40 0.40 94 -0.1
20260505152322 57 0.0 0.0 0.00 0.40 0.40 97 -0.1
20260505151822 57 0.0 0.0 0.00 0.40 0.40 97 -0.1
20260505151331 57 0.0 0.0 0.00 0.40 0.40 97 -0.1
20260505150322 57 0.0 0.0 0.00 0.40 0.40 97 -0.1
20260505124335 56 0.0 0.0 0.11 0.32 0.32 96 -0.1
20260505123821 56 0.0 0.0 0.14 0.32 0.32 96 -0.1
20260505122837 56 0.0 0.0 0.28 0.32 0.32 96 -0.1
20260505122323 56 0.0 0.0 0.28 0.32 0.32 96 -0.1
20260505120329 56 0.0 0.0 0.27 0.31 0.31 95 -0.1
20260505115835 56 0.0 0.0 0.27 0.31 0.31 95 -0.1
20260505115324 56 0.0 0.0 0.26 0.30 0.30 95 -0.1
20260505114837 56 0.0 0.0 0.20 0.24 0.24 95 -0.1
20260505114324 56 0.0 0.0 0.17 0.21 0.21 95 -0.1
20260505113339 56 0.0 0.0 0.03 0.07 0.07 94 -0.1
20260505112825 56 0.0 0.0 0.01 0.04 0.04 94 -0.1
20260505112333 56 0.0 0.0 0.02 0.04 0.04 94 -0.1
20260505111833 56 0.0 0.0 0.03 0.04 0.04 94 -0.1
20260505111319 56 0.0 0.0 0.03 0.04 0.04 94 -0.1
20260505110827 56 0.0 0.0 0.03 0.04 0.04 94 -0.1
20260505110332 56 0.0 0.0 0.03 0.04 0.04 94 -0.1
20260505101820 57 0.0 0.0 0.01 0.01 0.01 92 -0.1
20260505100834 57 0.0 0.0 0.01 0.01 0.01 91 -0.1
20260505095827 57 0.0 0.0 0.01 0.01 0.01 91 -0.1
20260505093322 58 0.0 0.0 0.00 0.00 0.00 90 -0.1
20260505092829 58 0.0 0.0 0.00 0.00 0.00 90 -0.1
20260505090837 58 0.0 0.0 0.00 0.00 0.00 88 -0.1
20260505085831 58 0.0 0.0 0.00 0.00 0.00 88 -0.1
20260505084836 58 0.0 0.0 0.00 0.00 0.00 88 -0.1
20260505084321 58 0.0 0.0 0.00 0.00 0.00 87 -0.1
20260505083829 59 0.0 0.0 0.00 0.00 0.00 87 -0.1
20260505083334 59 0.0 0.0 0.00 0.00 0.00 87 -0.1
20260505082825 59 0.0 0.0 0.00 0.00 0.00 86 -0.1
20260505081828 59 0.0 0.0 0.00 0.00 0.00 86 -0.1
20260505081333 59 0.0 0.0 0.00 0.00 0.00 85 -0.1
20260505075839 59 0.0 0.0 0.00 0.00 0.00 83 -0.1
20260505075326 59 0.0 0.0 0.00 0.00 0.00 83 -0.1
20260505073838 59 0.0 0.0 0.00 0.00 0.00 86 -0.1
20260505071336 59 0.0 0.0 0.00 0.00 0.00 89 -0.1
20260505070329 59 0.0 0.0 0.00 0.00 0.00 89 -0.1
20260505065838 59 0.0 0.0 0.00 0.00 0.00 89 -0.1
20260505063825 59 0.0 0.0 0.00 0.00 0.00 89 -0.1
20260505063333 59 0.0 0.0 0.00 0.00 0.00 89 -0.1
20260505062330 59 0.0 0.0 0.00 0.00 0.00 89 -0.1
20260505061336 59 0.0 0.0 0.00 0.00 0.00 89 -0.1
20260505060820 59 0.0 0.0 0.00 0.00 0.00 89 -0.1
20260505060327 59 0.0 0.0 0.00 0.00 0.00 89 -0.1
20260505055833 59 0.0 0.0 0.00 0.00 0.00 89 -0.1
20260505055322 59 0.0 0.0 0.00 0.00 0.00 89 -0.1
20260505054323 59 0.0 0.0 0.00 0.00 0.00 89 -0.1
20260505053831 59 0.0 0.0 0.00 0.00 0.00 89 -0.1
20260505052821 60 0.0 0.0 0.00 0.00 0.00 89 -0.1
20260505052328 60 0.0 0.0 0.00 0.00 0.00 88 -0.1
20260505051336 60 0.0 0.0 0.00 0.00 0.00 88 -0.1
20260505050822 60 0.0 0.0 0.00 0.00 0.00 88 -0.1
20260505050336 60 0.0 0.0 0.00 0.00 0.00 87 -0.1
20260505040824 61 0.0 0.0 0.00 0.00 0.00 84 -0.1
20260505040330 61 0.0 0.0 0.00 0.00 0.00 82 -0.1
20260505034836 61 0.0 0.0 0.00 0.00 0.00 80 -0.1
20260505033833 61 0.0 0.0 0.00 0.00 0.00 81 -0.1
20260505032829 61 0.0 0.0 0.00 0.00 0.00 81 -0.1
20260505031325 61 0.0 0.0 0.00 0.00 0.00 82 -0.1
20260505030833 61 0.0 0.0 0.00 0.00 0.00 81 -0.1
20260505030338 61 0.0 0.0 0.00 0.00 0.00 81 -0.1
20260505025334 61 0.0 0.0 0.00 0.00 0.00 81 -0.1
20260505024829 61 0.0 0.0 0.00 0.00 0.00 80 -0.1
20260505023827 61 0.0 0.0 0.00 0.00 0.00 80 -0.1
20260505023330 62 0.0 0.0 0.00 0.00 0.00 80 -0.1
20260505021837 62 286 6.0 10.0 0.00 0.00 0.00 80 -0.1
20260505015829 63 274 5.0 10.0 0.00 0.00 0.00 78 -0.1
20260505014831 63 260 4.0 10.0 0.00 0.00 0.00 79 -0.1
20260505014337 63 304 6.0 14.0 0.00 0.00 0.00 79 -0.1
20260505012819 64 236 8.0 11.0 0.00 0.00 0.00 77 -0.1
20260505012324 64 271 5.0 10.0 0.00 0.00 0.00 75 -0.1
20260505011822 65 284 2.0 12.0 0.00 0.00 0.00 76 -0.1
20260505011329 65 252 6.0 12.0 0.00 0.00 0.00 75 -0.1
20260505005830 66 299 4.0 12.0 0.00 0.00 0.00 72 -0.1
20260505005337 67 252 5.0 12.0 0.00 0.00 0.00 72 -0.1
20260505004323 67 265 5.0 14.0 0.00 0.00 0.00 72 -0.1
20260505003831 67 256 9.0 14.0 0.00 0.00 0.00 72 -0.1
20260505003337 67 257 6.0 14.0 0.00 0.00 0.00 71 -0.1
20260505002823 68 222 8.0 14.0 0.00 0.00 0.00 71 -0.1
20260505000827 67 287 10.0 15.0 0.00 0.00 0.00 71 -0.1
20260505000334 67 234 3.0 13.0 0.00 0.00 0.00 70 -0.1
20260504235837 68 248 7.0 13.0 0.00 0.00 0.00 71 -0.1
20260504234326 67 298 7.0 16.0 0.00 0.00 0.00 72 -0.1
20260504232824 66 268 7.0 15.0 0.00 0.00 0.00 71 -0.1
20260504231322 67 272 9.0 18.0 0.00 0.00 0.00 68 -0.1
20260504225325 67 267 9.0 13.0 0.00 0.00 0.00 68 -0.1
20260504224820 67 303 4.0 14.0 0.00 0.00 0.00 69 -0.1
20260504224328 67 250 5.0 14.0 0.00 0.00 0.00 69 -0.1
20260504220338 69 246 11.0 15.0 0.00 0.00 0.00 69 -0.1
20260504215822 68 311 9.0 14.0 0.00 0.00 0.00 68 -0.1
20260504214826 68 236 12.0 18.0 0.00 0.00 0.00 72 -0.1
20260504214331 68 288 5.0 16.0 0.00 0.00 0.00 71 -0.1
20260504213822 68 251 7.0 17.0 0.00 0.00 0.00 72 -0.1
20260504213327 68 242 12.0 16.0 0.00 0.00 0.00 71 -0.1
20260504211328 67 305 10.0 16.0 0.00 0.00 0.00 69 -0.1
20260504210320 66 282 8.0 15.0 0.00 0.00 0.00 72 -0.1
20260504204827 67 303 12.0 18.0 0.00 0.00 0.00 68 -0.1
20260504202319 66 310 9.0 14.0 0.00 0.00 0.00 70 -0.1
20260504201325 66 292 5.0 14.0 0.00 0.00 0.00 69 -0.1
20260504200323 66 252 8.0 17.0 0.00 0.00 0.00 69 -0.1
20260504195832 66 274 8.0 14.0 0.00 0.00 0.00 71 -0.1
20260504195337 66 236 4.0 11.0 0.00 0.00 0.00 70 -0.1
20260504193336 65 336 6.0 13.0 0.00 0.00 0.00 70 -0.1
20260504192820 65 286 5.0 16.0 0.00 0.00 0.00 73 -0.1
20260504191828 65 271 4.0 15.0 0.00 0.00 0.00 73 -0.1